EW8415 Weather Reports


Display with metric or nautical units.
time (UTC)temp
F
wind
direction
speed
MPH
gust
MPH
rain 1hr
in
rain 24hr
in
rain mn
in
humidity
%
barometer
mb
20260906133023 79 11 0.0 0.0 0.00 0.00 0.00 84 1014.6
20260906131516 78 11 0.0 1.0 0.00 0.00 0.00 85 1014.5
20260906130015 76 11 0.0 1.0 0.00 0.00 0.00 84 1014.4
20260906124514 74 84 0.0 0.0 0.00 0.00 0.00 85 1014.3
20260906123020 73 84 0.0 0.0 0.00 0.00 0.00 85 1014.2
20260906121511 73 84 0.0 0.0 0.00 0.00 0.00 85 1014.1
20260906120010 73 84 0.0 0.0 0.00 0.00 0.00 85 1013.8
20260906114510 73 84 0.0 0.0 0.00 0.00 0.00 85 1013.6
20260906113005 74 84 0.0 0.0 0.00 0.00 0.00 85 1013.4
20260906111504 74 84 0.0 0.0 0.00 0.00 0.00 85 1013.4
20260906110003 74 84 0.0 0.0 0.00 0.00 0.00 85 1013.2
20260906104505 74 84 0.0 0.0 0.00 0.00 0.00 85 1013.1
20260906103103 74 84 0.0 0.0 0.00 0.00 0.00 85 1013.0
20260906101559 74 84 0.0 0.0 0.00 0.00 0.00 85 1013.0
20260906100057 74 84 0.0 0.0 0.00 0.00 0.00 85 1012.8
20260906094557 74 84 0.0 0.0 0.00 0.00 0.00 85 1012.7
20260906093113 75 84 0.0 0.0 0.00 0.00 0.00 85 1012.5
20260906091553 75 84 0.0 0.0 0.00 0.00 0.00 85 1012.4
20260906090054 75 84 0.0 0.0 0.00 0.00 0.00 85 1012.4
20260906084553 75 84 0.0 0.0 0.00 0.00 0.00 85 1012.3
20260906083051 75 84 0.0 0.0 0.00 0.00 0.00 85 1012.3
20260906081551 75 84 0.0 0.0 0.00 0.00 0.00 84 1012.3
20260906080050 76 84 0.0 0.0 0.00 0.00 0.00 84 1012.3
20260906074548 76 84 0.0 0.0 0.00 0.00 0.00 84 1012.2
20260906073047 76 84 0.0 0.0 0.00 0.00 0.00 83 1012.2
20260906071545 76 84 0.0 0.0 0.00 0.00 0.00 83 1012.3
20260906070043 77 84 0.0 0.0 0.00 0.00 0.00 83 1012.4
20260906064542 77 84 0.0 0.0 0.00 0.00 0.00 83 1012.5
20260906063039 77 84 0.0 0.0 0.00 0.00 0.00 83 1012.6
20260906061538 78 84 0.0 1.0 0.00 0.00 0.00 83 1012.8
20260906060037 78 84 0.0 0.0 0.00 0.00 0.00 82 1012.8
20260906054535 78 84 0.0 0.0 0.00 0.00 0.00 82 1012.7
20260906053039 78 84 0.0 0.0 0.00 0.00 0.00 82 1012.7
20260906051533 79 84 0.0 0.0 0.00 0.00 0.00 82 1012.6
20260906050029 79 84 0.0 0.0 0.00 0.00 0.00 81 1012.4
20260906044529 79 84 0.0 0.0 0.00 0.00 0.00 80 1012.1
20260906043030 79 84 0.0 0.0 0.00 0.00 0.00 81 1012.1
20260906041528 80 84 0.0 0.0 0.00 0.00 0.00 80 1012.3
20260906040034 80 84 0.0 0.0 0.00 0.00 0.00 78 1012.3
20260906034535 80 84 0.0 0.0 0.00 0.00 0.00 77 1012.3
20260906033026 81 84 0.0 0.0 0.00 0.00 0.00 75 1012.3
20260906031526 81 84 0.0 0.0 0.00 0.00 0.00 74 1012.5
20260906030026 82 84 0.0 0.0 0.00 0.00 0.00 76 1012.5
20260906024526 83 84 0.0 0.0 0.00 0.00 0.00 75 1012.4
20260906023024 83 84 0.0 0.0 0.00 0.00 0.00 71 1012.4
20260906021526 84 84 0.0 0.0 0.00 0.00 0.00 71 1012.3
20260906020029 85 84 0.0 0.0 0.00 0.00 0.00 70 1012.1
20260906014530 85 84 0.0 0.0 0.00 0.00 0.00 68 1012.0
20260906013029 86 84 0.0 0.0 0.00 0.00 0.00 67 1011.8
20260906011523 87 84 0.0 0.0 0.00 0.00 0.00 62 1011.7
20260906010023 89 84 0.0 0.0 0.00 0.00 0.00 62 1011.5
20260906004522 90 84 0.0 0.0 0.00 0.00 0.00 61 1011.4
20260906003022 92 84 0.0 0.0 0.00 0.00 0.00 57 1011.4
20260906001522 95 84 0.0 0.0 0.00 0.00 0.00 52 1011.3
20260906000023 96 84 0.0 0.0 0.00 0.00 0.00 50 1011.3
20260905234522 97 84 0.0 3.0 0.00 0.00 0.00 48 1011.3
20260905233029 97 84 0.0 5.0 0.00 0.00 0.00 47 1011.1
20260905231520 98 112 1.0 4.0 0.00 0.00 0.00 46 1011.1
20260905230020 98 120 1.0 5.0 0.00 0.00 0.00 45 1011.0
20260905224521 98 157 1.0 4.0 0.00 0.00 0.00 44 1011.0
20260905223019 99 51 1.0 5.0 0.00 0.00 0.00 45 1010.9
20260905221529 99 76 2.0 9.0 0.00 0.00 0.00 45 1011.0
20260905220017 99 67 2.0 9.0 0.00 0.00 0.00 44 1011.1
20260905214515 100 101 1.0 6.0 0.00 0.00 0.00 44 1011.3
20260905213014 100 115 2.0 7.0 0.00 0.00 0.00 41 1011.3
20260905211521 100 53 2.0 7.0 0.00 0.00 0.00 45 1011.4
20260905210014 100 33 3.0 7.0 0.00 0.00 0.00 43 1011.5
20260905204511 100 126 1.0 7.0 0.00 0.00 0.00 43 1011.8
20260905203011 99 46 2.0 7.0 0.00 0.00 0.00 42 1012.1
20260905201506 99 132 2.0 9.0 0.00 0.00 0.00 42 1012.3
20260905200004 99 88 3.0 8.0 0.00 0.00 0.00 43 1012.4
20260905194501 99 116 3.0 8.0 0.00 0.00 0.00 45 1012.7
20260905193111 99 79 4.0 9.0 0.00 0.00 0.00 45 1013.1
20260905191556 99 18 2.0 5.0 0.00 0.00 0.00 46 1013.1
20260905190055 97 169 2.0 5.0 0.00 0.00 0.00 47 1013.3
20260905184556 97 53 3.0 7.0 0.00 0.00 0.00 48 1013.5
20260905183056 98 355 3.0 6.0 0.00 0.00 0.00 48 1013.8
20260905181547 97 236 2.0 5.0 0.00 0.00 0.00 49 1013.9
20260905180045 97 145 4.0 8.0 0.00 0.00 0.00 48 1014.0
20260905174542 97 86 2.0 5.0 0.00 0.00 0.00 50 1014.2
20260905173042 96 103 1.0 5.0 0.00 0.00 0.00 49 1014.4
20260905171538 96 80 5.0 9.0 0.00 0.00 0.00 52 1014.7